Regional Weather Roundup
Issued by NWS

Home | Current Version | Previous Version | Text Only | Print | Product List | Glossary Off
Versions: 1 2 3 4 5 6 7 8 9 10 11 12 13 14 15 16 17 18 19 20 21 22 23 24 25 26 27 28 29 30 31 32 33 34 35 36 37 38 39 40 41 42 43 44 45 46 47 48 49 50

000
ASUS43 KOAX 250210
RWRNE

WEATHER ROUNDUP FOR NEBRASKA
NATIONAL WEATHER SERVICE OMAHA NE
900 PM CDT SAT JUN 24 2017

NOTES: SATELLITE DATA IS BEING USED TO AUGMENT CLOUD COVER ABOVE
       12000 FEET.
       "FAIR" INDICATES FEW OR NO CLOUDS BELOW 12,000 FEET WITH NO
       SIGNIFICANT WEATHER AND/OR OBSTRUCTIONS TO VISIBILITY.

  * THESE STATIONS DO NOT REPORT WEATHER SUCH AS RAIN...SNOW OR FOG.

NEZ001>004-019>022-054>056-250300-
NEBRASKA PANHANDLE

CITY           SKY/WX    TMP DP  RH WIND       PRES   REMARKS
SCOTTSBLUFF    CLEAR     67  39  35 E7        30.28R
ALLIANCE       PTCLDY    66  39  37 SE6       30.27S
CHADRON        CLEAR     66  36  32 NE8       30.25R
GORDON         FAIR      65  38  37 N7        30.27S
KIMBALL        CLOUDY    67  38  34 E5        30.31R
SIDNEY         PTCLDY    67  35  30 E7        30.29R
$$

NEZ057>060-069>072-079>082-250300-
SOUTHWEST NEBRASKA

CITY           SKY/WX    TMP DP  RH WIND       PRES   REMARKS
NORTH PLATTE   CLEAR     67  35  30 NE8       30.24R
IMPERIAL       CLEAR     68  47  46 SE5       30.26R
LEXINGTON      CLEAR     67  40  37 NE5       30.24R
MCCOOK         PTCLDY    66  52  60 SE5       30.24R
OGALLALA       CLEAR     70  36  28 NE10G16   30.26R
$$

NEZ005>010-023>029-035>040-094-250300-
NORTH CENTRAL NEBRASKA

CITY           SKY/WX    TMP DP  RH WIND       PRES   REMARKS
VALENTINE      CLEAR     71  30  21 N10       30.23R
AINSWORTH      CLEAR     67  37  33 N13       30.23R
BROKEN BOW     CLOUDY    66  43  43 W5        30.23R
O`NEILL        CLEAR     67  38  34 N12       30.21R
ORD            CLEAR     62  44  51 W7        30.19R
THEDFORD       PTCLDY    70  35  27 N9        30.25R
$$

NEZ041-046>049-061>064-073>077-083>087-250300-
SOUTH CENTRAL NEBRASKA

CITY           SKY/WX    TMP DP  RH WIND       PRES   REMARKS
GRAND ISLAND   PTCLDY    68  42  38 NW6       30.21S
AURORA         PTCLDY    66  45  46 CALM      30.20S
HASTINGS       CLEAR     68  43  40 N5        30.23R
HEBRON         CLOUDY    71  47  43 CALM      30.20R
HOLDREGE       MOCLDY    70  46  42 SW3       30.23R
KEARNEY *      CLEAR     66  37  34 N6        30.23S
YORK           PTCLDY    66  41  39 NW6       30.20R
$$

NEZ011>018-030>034-042>045-250300-
NORTHEAST NEBRASKA

CITY           SKY/WX    TMP DP  RH WIND       PRES   REMARKS
NORFOLK        CLEAR     67  40  37 N8        30.16R
ALBION         CLEAR     70  35  27 N5        30.19R
BLAIR          PTCLDY    70  42  36 NW8       30.15R
FREMONT        PTCLDY    69  42  37 CALM      30.15R
TEKAMAH        CLEAR     71  37  28 NW10      30.13R
WAYNE          CLEAR     69  35  29 NW10G16   30.16R
$$

NEZ050>053-065>068-078-088>093-250300-
SOUTHEAST NEBRASKA

CITY           SKY/WX    TMP DP  RH WIND       PRES   REMARKS
LINCOLN        MOCLDY    74  42  31 W7        30.17R
OMAHA EPPLEY   PTCLDY    69  45  41 NW7       30.13R
BEATRICE       CLOUDY    69  48  47 W5        30.19R
FALLS CITY     CLOUDY    71  44  37 W10       30.14S
NEBRASKA CITY  MOCLDY    70  49  45 W8        30.15S
PLATTSMOUTH    PTCLDY    69  45  41 NW5       30.14S
$$

NEZ044-045-051>053-067-250300-
OMAHA AREA

CITY           SKY/WX    TMP DP  RH WIND       PRES   REMARKS
OMAHA EPPLEY   PTCLDY    69  45  41 NW7       30.13R
BLAIR          PTCLDY    70  42  36 NW8       30.15R
FREMONT        PTCLDY    69  42  37 CALM      30.15R
MILLARD        MOCLDY    74  45  34 NW5       30.14R
PLATTSMOUTH    PTCLDY    69  45  41 NW5       30.14S
WAHOO          FAIR      72  38  29 NW5       30.15R
$$



USA.gov is the U.S. government's official web portal to all federal, state and local government web resources and services.